CPA330 VHHH-ZGHA

Flight info

Callsign CPA330
Flight time N/A
Altitude 26600
Route BEKOL1C BEKOL/K0830S0810 A461 MEXON W616 UKLUK DCT
Aircraft A333/H-SDE3GHIJ2J3J5M1RVWXYZ/LB2D1

Departure

Time N/A
Airport Hong Kong International Airport (VHHH)

Arrival

Time 2026-05-09 13:12
Airport Changsha Huanghua International Airport (ZGHA)
Time Latitude Longitude Altitude Speed Heading
2026-05-09 12:47 26.72791 113.49055 15283 ft 385 kts 356°
2026-05-09 12:47 26.75463 113.49139 14896 ft 382 kts 356°
2026-05-09 12:48 26.78119 113.49220 14673 ft 382 kts 357°
2026-05-09 12:48 26.80774 113.49290 14434 ft 380 kts 356°
2026-05-09 12:48 26.83415 113.49367 14202 ft 379 kts 356°
2026-05-09 12:48 26.86052 113.49451 13973 ft 378 kts 357°
2026-05-09 12:49 26.88681 113.49542 13722 ft 377 kts 357°
2026-05-09 12:49 26.91266 113.49630 13485 ft 376 kts 357°
2026-05-09 12:49 26.93868 113.49715 13225 ft 374 kts 357°
2026-05-09 12:49 26.96457 113.49798 12975 ft 372 kts 357°
2026-05-09 12:50 26.99045 113.49882 12729 ft 371 kts 357°
2026-05-09 12:50 27.01621 113.49963 12486 ft 370 kts 357°
2026-05-09 12:50 27.04190 113.50043 12233 ft 369 kts 357°
2026-05-09 12:50 27.06752 113.50121 11996 ft 368 kts 358°
2026-05-09 12:51 27.09309 113.50201 11749 ft 367 kts 358°
2026-05-09 12:51 27.11862 113.50281 11503 ft 366 kts 358°
2026-05-09 12:51 27.14376 113.50361 11274 ft 366 kts 358°
2026-05-09 12:51 27.16913 113.50442 11032 ft 365 kts 358°
2026-05-09 12:52 27.19447 113.50523 10807 ft 363 kts 358°
2026-05-09 12:52 27.21969 113.50605 10562 ft 362 kts 358°
2026-05-09 12:52 27.24460 113.50488 10356 ft 357 kts 348°
2026-05-09 12:52 27.26883 113.49934 10119 ft 354 kts 342°
2026-05-09 12:53 27.29224 113.49225 9861 ft 341 kts 340°
2026-05-09 12:53 27.31448 113.48456 9610 ft 328 kts 339°
2026-05-09 12:53 27.33548 113.47681 9355 ft 316 kts 338°
2026-05-09 12:53 27.35601 113.46904 9101 ft 306 kts 338°
2026-05-09 12:54 27.37582 113.46153 8846 ft 297 kts 338°
2026-05-09 12:54 27.39515 113.45424 8603 ft 288 kts 338°
2026-05-09 12:54 27.41400 113.44719 8374 ft 284 kts 339°
2026-05-09 12:54 27.43273 113.44024 8124 ft 283 kts 339°
2026-05-09 12:55 27.45117 113.43343 7890 ft 282 kts 339°
2026-05-09 12:55 27.46977 113.42658 7653 ft 281 kts 339°
2026-05-09 12:55 27.48848 113.42030 7411 ft 281 kts 345°
2026-05-09 12:55 27.50780 113.41711 7173 ft 281 kts 352°
2026-05-09 12:56 27.52725 113.41556 6936 ft 280 kts 355°
2026-05-09 12:56 27.54665 113.41483 6698 ft 279 kts 357°
2026-05-09 12:56 27.56608 113.41454 6447 ft 278 kts 358°
2026-05-09 12:56 27.58536 113.41444 6203 ft 277 kts 358°
2026-05-09 12:57 27.60430 113.41436 6055 ft 276 kts 358°
2026-05-09 12:57 27.62349 113.41426 5930 ft 275 kts 358°
2026-05-09 12:57 27.64260 113.41390 5817 ft 274 kts 355°
2026-05-09 12:57 27.66136 113.41055 5674 ft 273 kts 346°
2026-05-09 12:58 27.67977 113.40558 5559 ft 273 kts 345°
2026-05-09 12:58 27.69816 113.40019 5417 ft 272 kts 344°
2026-05-09 12:58 27.71645 113.39470 5259 ft 272 kts 344°
2026-05-09 12:58 27.73470 113.38916 5127 ft 271 kts 344°
2026-05-09 12:59 27.75290 113.38360 5009 ft 271 kts 344°
2026-05-09 12:59 27.77084 113.37812 4883 ft 270 kts 344°
2026-05-09 12:59 27.78895 113.37258 4755 ft 270 kts 344°
2026-05-09 12:59 27.80707 113.36702 4621 ft 270 kts 344°
2026-05-09 13:00 27.82515 113.36147 4511 ft 269 kts 344°
2026-05-09 13:00 27.84322 113.35592 4373 ft 269 kts 344°
2026-05-09 13:00 27.86129 113.35036 4253 ft 269 kts 344°
2026-05-09 13:00 27.87930 113.34483 4119 ft 268 kts 344°
2026-05-09 13:01 27.89704 113.33937 3995 ft 268 kts 344°
2026-05-09 13:01 27.91521 113.33378 3877 ft 268 kts 344°
2026-05-09 13:01 27.93319 113.32826 3750 ft 268 kts 344°
2026-05-09 13:01 27.95093 113.32280 3627 ft 268 kts 344°
2026-05-09 13:02 27.96890 113.31726 3502 ft 267 kts 345°
2026-05-09 13:02 27.98683 113.31174 3383 ft 266 kts 345°
2026-05-09 13:02 28.00468 113.30624 3263 ft 266 kts 345°
2026-05-09 13:02 28.02253 113.30073 3132 ft 265 kts 345°
2026-05-09 13:03 28.04035 113.29524 3011 ft 265 kts 345°
2026-05-09 13:03 28.05814 113.28976 2865 ft 263 kts 344°
2026-05-09 13:03 28.07564 113.28435 2635 ft 262 kts 344°
2026-05-09 13:03 28.09315 113.27898 2298 ft 265 kts 347°
2026-05-09 13:04 28.11136 113.27657 2265 ft 262 kts
2026-05-09 13:04 28.12939 113.27881 2406 ft 262 kts 13°
2026-05-09 13:04 28.14599 113.28704 2421 ft 262 kts 39°
2026-05-09 13:04 28.15801 113.30235 2425 ft 260 kts 52°
2026-05-09 13:05 28.17178 113.31554 2418 ft 261 kts 26°
2026-05-09 13:05 28.18894 113.32010 2415 ft 249 kts
2026-05-09 13:05 28.20562 113.31965 2418 ft 238 kts 357°
2026-05-09 13:05 28.22176 113.31840 2403 ft 226 kts 356°
2026-05-09 13:06 28.23703 113.31717 2411 ft 215 kts 356°
2026-05-09 13:06 28.25184 113.31598 2424 ft 213 kts 355°
2026-05-09 13:06 28.26653 113.31429 2417 ft 213 kts 349°
2026-05-09 13:06 28.28111 113.31121 2413 ft 213 kts 349°
2026-05-09 13:07 28.29565 113.30823 2412 ft 209 kts 347°
2026-05-09 13:07 28.30829 113.30123 2414 ft 201 kts 315°
2026-05-09 13:07 28.31559 113.28797 2419 ft 199 kts 288°
2026-05-09 13:07 28.31846 113.27270 2419 ft 198 kts 273°
2026-05-09 13:08 28.31888 113.25727 2420 ft 198 kts 266°
2026-05-09 13:08 28.31815 113.24165 2418 ft 198 kts 266°
2026-05-09 13:08 28.31715 113.22602 2416 ft 198 kts 260°
2026-05-09 13:08 28.31227 113.21170 2410 ft 195 kts 230°
2026-05-09 13:09 28.30139 113.20343 2438 ft 184 kts 197°
2026-05-09 13:09 28.28913 113.20286 2348 ft 174 kts 168°
2026-05-09 13:09 28.27816 113.20759 2159 ft 166 kts 154°
2026-05-09 13:09 28.26807 113.21385 1750 ft 164 kts 154°
2026-05-09 13:10 28.25737 113.21624 1406 ft 158 kts 181°
2026-05-09 13:10 28.24664 113.21596 1099 ft 150 kts 180°
2026-05-09 13:10 28.23652 113.21640 835 ft 143 kts 176°
2026-05-09 13:10 28.22694 113.21721 633 ft 134 kts 175°
2026-05-09 13:11 28.21779 113.21803 474 ft 135 kts 175°
2026-05-09 13:11 28.21184 113.21845 371 ft 137 kts 178°
2026-05-09 13:11 28.20233 113.21896 238 ft 136 kts 174°
2026-05-09 13:11 28.19391 113.21948 222 ft 97 kts 177°
2026-05-09 13:12 28.18921 113.21977 224 ft 40 kts 177°
2026-05-09 13:12 28.18767 113.21965 222 ft 19 kts 193°
2026-05-09 13:12 28.18651 113.21924 224 ft 15 kts 204°
2026-05-09 13:12 28.18611 113.21903 224 ft 2 kts 204°
2026-05-09 13:13 28.18600 113.21897 224 ft 4 kts 206°
2026-05-09 13:13 28.18577 113.21871 225 ft 5 kts 240°
2026-05-09 13:14 28.18573 113.21850 225 ft 2 kts 260°
2026-05-09 13:14 28.18575 113.21834 225 ft 6 kts 284°
2026-05-09 13:16 28.18881 113.21731 221 ft 7 kts 279°
2026-05-09 13:16 28.18883 113.21673 219 ft 8 kts 269°
2026-05-09 13:16 28.18909 113.21623 225 ft 6 kts 321°
2026-05-09 13:16 28.18930 113.21603 226 ft 2 kts 320°
2026-05-09 13:17 28.18943 113.21591 220 ft 3 kts 321°
2026-05-09 13:17 28.18944 113.21590 220 ft 0 kts 321°
2026-05-09 13:17 28.21083 113.21848 361 ft 137 kts 178°
2026-05-09 13:18 28.20147 113.21902 233 ft 134 kts 175°
2026-05-09 13:18 28.19325 113.21952 224 ft 91 kts 177°
2026-05-09 13:18 28.18944 113.21590 220 ft 0 kts 321°